This demonstration page uses our WeatherBlox Daily Observations layout. Learn more.

Hourly Observations for August 11, 2019

Temp ( °F °C ) Dew Point ( °F °C ) Humidity (%) Winds ( mph kmh ) Pressure ( in mb ) Visibility ( mi km ) Precip ( " mm )
12:15 am 00:15 Mostly Cloudy with Light Rain 76 24.3 76 24.3 100 100 N 3 6 29.88 1012 5 8.04672 0 0
12:35 am 00:35 Mostly Cloudy with Light Rain 76 24.3 76 24.3 100 100 Calm 29.88 1012 4 6.437376 0.02 0.508
12:55 am 00:55 Cloudy with Light Rain 76 24.2 76 24.2 100 100 E 7 11 29.85 1011 3 4.828032 0.05 1.27
1:15 am 01:15 Partly Cloudy with Light Rain 76 24.3 76 24.3 100 100 ESE 10 17 29.83 1010 5 8.04672 0.01 0.254
1:35 am 01:35 Partly Cloudy with Light Rain 76 24.5 76 24.3 99 99 SE 10 17 29.83 1010 5 8.04672 0.02 0.508
1:55 am 01:55 Mostly Cloudy with Light Rain 76 24.5 76 24.3 99 99 SSE 14 22 29.83 1010 7 11.265408 0.02 0.508
2:15 am 02:15 Mostly Cloudy 76 24.5 76 24.2 98 98 S 13 20 29.83 1010 7 11.265408 0.01 0.254
2:35 am 02:35 Mostly Cloudy with Light Rain 74 23.6 72 22.4 93 93 SSW 14 22 29.85 1011 10 16.09344 0.02 0.508
2:55 am 02:55 Mostly Cloudy with Light Rain 71 21.5 68 19.8 90 90 WSW 12 19 29.85 1011 10 16.09344 0.02 0.508
3:15 am 03:15 Mostly Cloudy with Light Rain 70 21.3 69 20.3 94 94 SSW 8 13 29.88 1012 10 16.09344 0.01 0.254
3:35 am 03:35 Partly Cloudy with Light Rain 71 21.5 69 20.5 94 94 SSW 5 7 29.88 1012 10 16.09344 0.01 0.254
3:55 am 03:55 Partly Cloudy with Rain 70 21 69 20.5 97 97 WNW 3 6 29.91 1013 10 16.09344 0.04 1.016
4:15 am 04:15 Mostly Cloudy with Rain 70 20.9 69 20.6 98 98 W 5 7 29.91 1013 7 11.265408 0.03 0.762
4:35 am 04:35 Cloudy with Rain 69 20.8 69 20.5 98 98 Calm 29.88 1012 10 16.09344 0.05 1.27
4:55 am 04:55 Cloudy with Light Rain 69 20.7 69 20.6 99 99 Calm 29.91 1013 10 16.09344 0.07 1.778
5:15 am 05:15 Mostly Cloudy with Light Rain 69 20.8 69 20.6 99 99 Calm 29.88 1012 10 16.09344 0.01 0.254
5:35 am 05:35 Partly Cloudy with Light Drizzle 69 20.6 69 20.6 100 100 Calm 29.88 1012 10 16.09344 0.01 0.254
5:55 am 05:55 Clear 69 20.3 69 20.3 100 100 NW 3 6 29.88 1012 10 16.09344 0.01 0.254
6:15 am 06:15 Clear 68 20.1 68 20.1 100 100 Calm 29.88 1012 10 16.09344 0 0
6:35 am 06:35 Clear 68 20 68 20 100 100 NE 3 6 29.88 1012 10 16.09344 0 0
6:55 am 06:55 Sunny 68 20 68 20 100 100 NNE 9 15 29.88 1012 10 16.09344 0 0
7:15 am 07:15 Sunny 68 20.1 68 20.1 100 100 Calm 29.88 1012 10 16.09344 0 0
7:35 am 07:35 Sunny with Nearby Thunderstorms 69 20.3 69 20.3 100 100 Calm 29.88 1012 10 16.09344 0 0
7:55 am 07:55 Sunny 69 20.5 69 20.5 100 100 Calm 29.88 1012 10 16.09344 0 0
8:15 am 08:15 Sunny 70 21 70 21 100 100 WNW 6 9 29.88 1012 10 16.09344 0 0
8:35 am 08:35 Sunny 70 21.2 70 21.1 99 99 NW 5 7 29.88 1012 10 16.09344 0 0
8:55 am 08:55 Sunny 72 22.1 70 21.3 95 95 N 7 11 29.91 1013 10 16.09344 0 0
9:15 am 09:15 Sunny 72 22.3 71 21.5 95 95 NNE 8 13 29.91 1013 10 16.09344 0 0
9:35 am 09:35 Sunny 73 22.8 71 21.7 94 94 NNE 6 9 29.91 1013 10 16.09344 0 0
9:55 am 09:55 Sunny 74 23.1 71 21.5 91 91 NE 8 13 29.88 1012 10 16.09344 0 0
10:15 am 10:15 Sunny 75 23.7 71 21.4 87 87 NE 8 13 29.88 1012 10 16.09344 0 0
10:35 am 10:35 Partly Cloudy 76 24.5 71 21.5 83 83 NE 8 13 29.88 1012 10 16.09344 0 0
10:55 am 10:55 Partly Cloudy 77 25.2 73 22.9 87 87 ENE 10 17 29.88 1012 10 16.09344 0 0
11:15 am 11:15 Mostly Cloudy 78 25.5 74 23.2 87 87 E 8 13 29.91 1013 10 16.09344 0 0
11:35 am 11:35 Cloudy 78 25.6 74 23.4 88 88 E 9 15 29.91 1013 10 16.09344 0 0
11:55 am 11:55 Cloudy 79 26.3 74 23.6 85 85 E 13 20 29.91 1013 10 16.09344 0 0
12:15 pm 12:15 Mostly Cloudy 80 26.5 74 23.2 82 82 E 8 13 29.91 1013 10 16.09344 0 0
12:35 pm 12:35 Mostly Cloudy 80 26.9 74 23.4 81 81 SE 10 17 29.85 1011 10 16.09344 0 0
12:55 pm 12:55 Cloudy 81 27.1 74 23.4 80 80 SE 8 13 29.85 1011 10 16.09344 0 0
1:15 pm 13:15 Cloudy 81 27.1 74 23.1 79 79 ESE 8 13 29.85 1011 10 16.09344 0 0
1:35 pm 13:35 Mostly Cloudy 83 28.1 73 22.5 72 72 SE 10 17 29.85 1011 10 16.09344 0 0
1:55 pm 13:55 Partly Cloudy 82 28 72 22.1 70 70 ESE 12 19 29.85 1011 10 16.09344 0 0
2:15 pm 14:15 Partly Cloudy 83 28.3 73 22.7 72 72 ESE 10 17 29.85 1011 10 16.09344 0 0
2:35 pm 14:35 Partly Cloudy 84 28.8 74 23.1 71 71 SE 10 17 29.83 1010 10 16.09344 0 0
2:55 pm 14:55 Mostly Cloudy 85 29.4 73 22.7 67 67 SE 9 15 29.83 1010 10 16.09344 0 0
3:15 pm 15:15 Mostly Cloudy 85 29.5 73 22.5 66 66 SE 12 19 29.83 1010 10 16.09344 0 0
3:35 pm 15:35 Partly Cloudy 85 29.3 72 22.2 66 66 SE 10 17 29.83 1010 10 16.09344 0 0
3:55 pm 15:55 Partly Cloudy 85 29.4 72 22.4 66 66 SSE 9 15 29.83 1010 10 16.09344 0 0
4:15 pm 16:15 Partly Cloudy 85 29.4 73 22.5 66 66 SSE 7 11 29.83 1010 10 16.09344 0 0
4:35 pm 16:35 Sunny 85 29.5 72 22.4 66 66 SSE 8 13 29.83 1010 10 16.09344 0 0
4:55 pm 16:55 Sunny 85 29.5 73 22.5 66 66 SE 9 15 29.8 1009 10 16.09344 0 0
5:15 pm 17:15 Sunny 85 29.7 72 22.1 64 64 SSE 9 15 29.8 1009 10 16.09344 0 0
5:35 pm 17:35 Sunny 85 29.6 73 22.5 66 66 SSE 7 11 29.8 1009 10 16.09344 0 0
5:55 pm 17:55 Sunny 85 29.5 72 22.2 65 65 SE 7 11 29.77 1008 10 16.09344 0 0
6:15 pm 18:15 Sunny 85 29.5 71 21.8 63 63 SSE 9 15 29.77 1008 10 16.09344 0 0
6:35 pm 18:35 Sunny 85 29.3 72 22.2 66 66 SE 8 13 29.77 1008 10 16.09344 0 0
6:55 pm 18:55 Sunny 84 29 73 22.6 68 68 SE 8 13 29.77 1008 10 16.09344 0 0
7:15 pm 19:15 Sunny 83 28.6 73 22.5 70 70 SE 8 13 29.77 1008 10 16.09344 0 0
7:35 pm 19:35 Sunny 81 27.3 73 22.6 76 76 ESE 6 9 29.77 1008 10 16.09344 0 0
7:55 pm 19:55 Sunny 79 26.1 74 23.3 85 85 ESE 6 9 29.74 1007 10 16.09344 0 0
8:15 pm 20:15 Sunny 78 25.5 74 23.4 88 88 E 8 13 29.77 1008 10 16.09344 0 0
8:35 pm 20:35 Sunny 77 25 74 23.5 91 91 ESE 6 9 29.77 1008 10 16.09344 0 0
8:55 pm 20:55 Clear 76 24.7 74 23.5 93 93 ESE 7 11 29.77 1008 10 16.09344 0 0
9:15 pm 21:15 Clear 76 24.5 74 23.5 94 94 ESE 7 11 29.77 1008 10 16.09344 0 0
9:35 pm 21:35 Clear 76 24.5 74 23.5 94 94 E 8 13 29.77 1008 10 16.09344 0 0
9:55 pm 21:55 Clear 76 24.6 74 23.5 94 94 E 8 13 29.77 1008 10 16.09344 0 0
10:15 pm 22:15 Clear 77 24.8 74 23.5 93 93 ESE 10 17 29.8 1009 10 16.09344 0 0
10:35 pm 22:35 Clear 77 24.8 74 23.2 91 91 ESE 13 20 29.77 1008 10 16.09344 0 0
10:55 pm 22:55 Clear 76 24.7 74 23.2 91 91 ESE 12 19 29.74 1007 10 16.09344 0 0
11:15 pm 23:15 Clear with Nearby Thunderstorms 76 24.5 74 23.1 92 92 E 15 24 29.71 1006 10 16.09344 0 0
11:35 pm 23:35 Partly Cloudy with Nearby Thunderstorms 76 24.5 73 23 91 91 ESE 15 24 29.71 1006 10 16.09344 0 0
11:55 pm 23:55 Mostly Cloudy 77 24.8 73 22.9 89 89 S 18 30 29.71 1006 10 16.09344 0 0

Powered by AerisWeather